Tracking 28052 objects as of 25-Sep-2023
HD Live streaming from Space Station
objects crossing your sky now

COSMOS 1249 FUEL CORE

Track COSMOS 1249 FUEL CORE now!
10-day predictions


NORAD ID: 12551
Int'l Code: 1981-021C
Perigee: 902.4 km
Apogee: 965.5 km
Inclination: 65.0 °
Period: 103.6 minutes
Semi major axis: 7304 km
RCS: 0.1622 m2 (medium)
Launch date: March 5, 1981
Source: Commonwealth of Independent States (former USSR) (CIS)
Launch site: TYURATAM MISSILE AND SPACE COMPLEX (TTMTR)

Note: This is SATELLITE DEBRIS
Your satellite tracking list
Your tracking list is empty




NASA's NSSDC Master Catalog

Two Line Element Set (TLE):
1 12551U 81021C   23268.53888266 -.00000049  00000-0  33078-4 0  9992
2 12551  64.9656 303.0672 0043187 191.7679 168.2379 13.90511031163039
Source of the keplerian elements: AFSPC